Location: Newark
(45.2500°N, 7.5833°E)
Time: 11:21:45
(UTC+00:00)

First-Move - Pass Details

Date: 27 February 2020
Orbit: 576 x 669 km, 97.6° (Epoch: 05 April)

Event Time Altitude Azimuth Distance (km) Brightness Sun altitude
Rises 04:36:40 0° 25° (NNE) 3,022 ? -17.6°
Reaches altitude 10° 04:39:23 10° 41° (NE) 2,098 ? -17.2°
Maximum altitude 04:42:56 22° 92° (E) 1,447 ? -16.5°
Drops below altitude 10° 04:46:25 10° 143° (SE) 2,059 ? -15.9°
Sets 04:49:03 0° 159° (SSE) 2,950 ? -15.5°
